This is the latest recevied weather packets stored in our database for station/object KC5DAQ-22. If no packets are shown the sender has not sent any weather packets the latest 1 day(s).
| Time | Temp. | Humidity | Pressure | Rain* | Wind** | Luminosity | Snow |
|---|---|---|---|---|---|---|---|
| 1777974898 | 22.22° C | 90% | 1006.8 hPa | 0 mm | 1.79 m/s, 47° | 0 W/m² | - |
| 1777974838 | 22.22° C | 90% | 1006.8 hPa | 0 mm | 2.68 m/s, 28° | 0 W/m² | - |
| 1777974781 | 22.22° C | 90% | 1006.9 hPa | 0 mm | 2.68 m/s, 42° | 0 W/m² | - |
| 1777974717 | 22.22° C | 90% | 1006.9 hPa | 0 mm | 1.79 m/s, 47° | 0 W/m² | - |
| 1777974658 | 22.22° C | 90% | 1006.8 hPa | 0 mm | 1.34 m/s, 35° | 0 W/m² | - |
| 1777974599 | 22.22° C | 90% | 1006.8 hPa | 0 mm | 1.79 m/s, 31° | 0 W/m² | - |
| 1777974539 | 22.22° C | 90% | 1006.8 hPa | 0 mm | 1.79 m/s, 38° | 0 W/m² | - |
| 1777974478 | 22.22° C | 90% | 1006.8 hPa | 0 mm | 1.34 m/s, 35° | 0 W/m² | - |
| 1777974418 | 22.22° C | 90% | 1006.8 hPa | 0 mm | 1.79 m/s, 24° | 0 W/m² | - |
| 1777974359 | 22.22° C | 90% | 1006.8 hPa | 0 mm | 1.34 m/s, 35° | 0 W/m² | - |
| 1777974299 | 22.22° C | 90% | 1006.8 hPa | 0 mm | 1.34 m/s, 35° | 0 W/m² | - |
| 1777974238 | 22.22° C | 90% | 1006.8 hPa | 0 mm | 1.34 m/s, 38° | 0 W/m² | - |
| 1777974180 | 22.22° C | 90% | 1006.7 hPa | 0 mm | 1.34 m/s, 31° | 0 W/m² | - |
| 1777974118 | 22.22° C | 90% | 1006.8 hPa | 0 mm | 1.34 m/s, 30° | 0 W/m² | - |
| 1777974057 | 22.22° C | 90% | 1006.8 hPa | 0 mm | 1.34 m/s, 39° | 0 W/m² | - |
| 1777973999 | 22.22° C | 90% | 1006.8 hPa | 0 mm | 0.89 m/s, 39° | 0 W/m² | - |
| 1777973940 | 22.22° C | 90% | 1006.8 hPa | 0 mm | 0.89 m/s, 32° | 0 W/m² | - |
| 1777973877 | 22.22° C | 90% | 1006.9 hPa | 0 mm | 1.34 m/s, 39° | 0 W/m² | - |
| 1777973816 | 22.22° C | 90% | 1006.9 hPa | 0 mm | 0.89 m/s, 28° | 0 W/m² | - |
| 1777973755 | 22.22° C | 90% | 1007 hPa | 0 mm | 0.89 m/s, 37° | 0 W/m² | - |
| 1777973693 | 22.22° C | 90% | 1007 hPa | 0 mm | 1.34 m/s, 37° | 0 W/m² | - |
| 1777973631 | 22.22° C | 90% | 1007 hPa | 0 mm | 0.89 m/s, 38° | 0 W/m² | - |
| 1777973566 | 22.22° C | 90% | 1007 hPa | 0 mm | 1.79 m/s, 37° | 0 W/m² | - |
| 1777973504 | 22.22° C | 90% | 1007 hPa | 0 mm | 1.79 m/s, 37° | 0 W/m² | - |
| 1777973443 | 22.22° C | 90% | 1007 hPa | 0 mm | 0.89 m/s, 32° | 0 W/m² | - |
* Rain latest hour (hover to see other rain measurements)
** Current wind speed in m/s (hover to see current wind gust speed)